Location: Laguna de la Cañada del Gallo
(40.3974°N, 5.2096°W)
Time: 15:51:23
(UTC+00:00)

COSMOS 2455 - Pass Details

Date: 18 April 2024
Orbit: 898 x 911 km, 67.1° (Epoch: 29 May)

Event Time Altitude Azimuth Distance (km) Brightness Sun altitude
Rises 20:17:17 0° 340° (NNW) 3,547 6.7 -13.9°
Reaches altitude 10° 20:20:24 10° 355° (N) 2,603 5.7 -14.4°
Maximum altitude 20:25:03 22° 45° (NE) 1,863 4.3 -15.2°
Enters shadow 20:28:04 16° 83° (E) 2,207 4.4 -15.7°
